Regional Weather Roundup
Issued by NWS

Home | Current Version | Previous Version | Text Only | Print | Product List | Glossary Off
Versions: 1 2 3 4 5 6 7 8 9 10 11 12 13 14 15 16 17 18 19 20 21 22 23 24 25 26 27

000
ASUS45 KTFX 150410
RWRMT
MONTANA REGIONAL WEATHER ROUNDUP
NATIONAL WEATHER SERVICE GREAT FALLS MT
900 PM MST THU DEC 14 2017

NOTE: "FAIR" INDICATES FEW OR NO CLOUDS BELOW 12000 FEET WITH NO
SIGNIFICANT WEATHER AND/OR OBSTRUCTIONS TO VISIBILITY.

MTZ001>007-043-150500-
WEST OF THE DIVIDE

CITY           SKY/WX    TMP DP  RH WIND       PRES   REMARKS
KALISPELL      CLOUDY    28  26  92 CALM      30.35F
MISSOULA       FAIR      24  21  88 NE3       30.34F
BUTTE          FAIR      12   8  84 W5        30.26F
MULLAN PASS    FAIR      26  22  84 S7        30.23F WCI  18
ANACONDA         N/A     16  14  93 SE3       30.27F VSB 1/4
DEER LODGE       N/A     14  12  92 CALM      30.32S
EUREKA           N/A     25  21  86 MISG      30.37F
HAMILTON         N/A     19  18  93 CALM      30.34S
LIBBY            N/A     28  25  86 CALM      30.35F
PLAINS           N/A     31  25  78 CALM      30.33
RONAN            N/A     29  24  81 SE2       30.34F
$$

MTZ008-052>055-150500-
SOUTHWEST MONTANA

CITY           SKY/WX    TMP DP  RH WIND       PRES   REMARKS
BOZEMAN        FOG       10   7  87 CALM      30.26F VSB 1/4
DILLON         FAIR      22  16  78 S8        30.26F WCI  12
W YELLOWSTONE  FAIR      14  12  92 CALM      30.31F
ENNIS          CLOUDY    27  18  69 S13       30.29S WCI  16
THREE FORKS      N/A     10   6  84 CALM      30.22F VSB 0
$$

MTZ009-010-012-014-046-048-049-054-150500-
EAST SLOPES AND CENTRAL MONTANA

CITY           SKY/WX    TMP DP  RH WIND       PRES   REMARKS
CUT BANK       FAIR      39  18  42 W25       30.00F WCI  28
GREAT FALLS    FAIR      34  19  54 SW18      30.07F WCI  23
MALMSTROM AFB  FAIR      35  20  55 SW22      30.07F WCI  23
HELENA         CLOUDY    20  19  96 NW5       30.25S
BOWMANS CRNR   FAIR      28  20  72 S21       30.07F WCI  15
CHOTEAU          N/A     45  14  29 W14G21    30.04F
CONRAD           N/A     24  18  78 SE6       30.02  WCI  17
FAIRFIELD      FAIR      33  18  53 S9        30.04F WCI  26
POWER          FAIR      31  19  59 SW13      30.03F WCI  22
RAYNESFORD     FAIR      42  16  34 SW20G26   30.06S
ULM            FAIR      34  21  58 SW14      30.09F WCI  25
$$

MTZ011-013-016-021-045-047-050-051-150500-
NORTH CENTRAL MONTANA

CITY           SKY/WX    TMP DP  RH WIND       PRES   REMARKS
HAVRE          FAIR      35  23  61 SW18      29.99F WCI  24
LEWISTOWN      FAIR      31  20  63 W7        30.05F WCI  24
N BAR RANCH    FAIR      36  12  38 W6        30.04F WCI  31
CHINOOK          N/A     25  21  86 CALM      29.99F
DENTON         FAIR      35  20  53 W14       30.00F WCI  26
GEYSER         MOCLDY    42  16  34 W14G24    30.03F
GRASS RANGE    FAIR      38  18  42 W7        29.99F
STANFORD       MOCLDY    41  18  39 W10       30.04F
WINIFRED       FAIR      35  19  51 W12       30.02F WCI  27
$$

MTZ017>020-022>027-061-062-150500-
NORTHEAST MONTANA

CITY           SKY/WX    TMP DP  RH WIND       PRES   REMARKS
GLASGOW        FAIR      21  18  88 CALM      30.02F
GLENDIVE       FAIR      24  19  81 SE6       30.05F WCI  17
JORDAN           N/A     21  17  84 W8        30.03F WCI  11
SIDNEY         FAIR      23  20  88 S3        30.04F
WOLF POINT     FAIR      15  13  91 W3        30.04F
MALTA          CLEAR     21  19  93 W5        30.01F
PLENTYWOOD       N/A     27  23  86 CALM      30.00F
POPLAR           N/A     23  18  80 CALM      30.04F
SCOBEY           N/A     19  11  71 CALM      29.98
$$

MTZ028>42-056>058-150500-
SOUTHCENTRAL AND SOUTHEAST MONTANA

CITY           SKY/WX    TMP DP  RH WIND       PRES   REMARKS
BAKER          FAIR      24  20  84 W12       30.05F WCI  13
BILLINGS       FAIR      38  19  46 W17       30.08F WCI  28
LIVINGSTON     FAIR      37  22  54 SW31G40   30.14F WCI  24
MILES CITY     FAIR      24  20  84 SE7       30.05F WCI  16
BIG TIMBER     CLEAR     37  18  44 SW31G39   30.10F WCI  25
EKALAKA          N/A     27  18  69 SW10      30.01  WCI  17
FORSYTH          N/A     28  21  74 CALM      30.05F
LAUREL           N/A     37  18  44 SW14      30.10F WCI  29
$$

REGIONAL REPORTS...DAKOTAS

CITY           SKY/WX    TMP DP  RH WIND       PRES   REMARKS
WILLISTON      FAIR      25  21  85 SE3       30.03F
MINOT          CLOUDY    32  22  66 NW17      29.99F WCI  21
DICKINSON      FAIR      21  17  84 W8        30.00F WCI  11
BEACH          FAIR      23  19  86 W9        30.06F WCI  13
CROSBY         FAIR      23  23 100 W7        30.01F WCI  15
TIOGA          CLOUDY    28  28 100 NW9       30.01F WCI  20
WATFORD CITY   FAIR      23  21  93 SW6       30.02F WCI  16
BISMARCK       CLOUDY    35  25  66 W8        30.03F WCI  29
GRAND FORKS    CLOUDY    20  18  92 NW5       30.01F
FARGO          CLOUDY    22  20  92 E6        30.00F WCI  14
BUFFALO SD       N/A     20  16  84 W13       29.99F WCI   7
RAPID CITY     FAIR      16  11  80 CALM      30.12F
$$

REGIONAL REPORTS...WYOMING/IDAHO/WASHINGTON

CITY           SKY/WX    TMP DP  RH WIND       PRES   REMARKS
GILLETTE       FAIR      28  18  66 VRB5      30.11F
SHERIDAN       FAIR      22  16  78 S6        30.10F WCI  14
BUFFALO WY     FAIR      30  15  53 S9        30.10F WCI  22
CODY           FAIR      20  14  77 CALM      30.14F
YELLOWSTONE LA   N/A      8   5  87 NW3       30.32S
IDAHO FALLS    FOG       20  19  96 NE6       30.42F VSB 1/2 WCI  12
SALMON         CLOUDY    28  25  88 W5        30.42F
BOISE          CLOUDY    27  23  85 SE5       30.48F
SPOKANE        CLOUDY    30  28  92 S3        30.38S FOG
$$

REGIONAL REPORTS...ALBERTA

CITY           SKY/WX    TMP DP  RH WIND       PRES   REMARKS
EDMONTON       CLOUDY    37  25  60 SW7       29.79F
CALGARY        MOCLDY    39  18  41 SW8       29.89F
LETHBRIDGE     CLEAR     41  19  42 SW18      29.95F
MEDICINE HAT   CLEAR     32  23  69 SW14      29.92F WCI  22
$$

REGIONAL REPORTS...SASKATCHEWAN

CITY           SKY/WX    TMP DP  RH WIND       PRES   REMARKS
SWIFT CURRENT  CLOUDY    30  23  74 SW13      29.90F WCI  20
REGINA         CLOUDY    21  21 100 S8        29.95F WCI  12
SASKATOON      CLOUDY    28  25  86 S8        29.88F WCI  20
$$




USA.gov is the U.S. government's official web portal to all federal, state and local government web resources and services.